KAP5221 KACK-KBOS

Flight info

Callsign KAP5221
Flight time 0h 49m
Altitude 8000
Route ACK ACK341 FREDO
Aircraft C208/L-SDFGR/C

Departure

Time 2026-05-06 00:52
Airport Nantucket Memorial Airport (KACK)

Arrival

Time 2026-05-06 01:41
Airport Boston Logan International Airport (KBOS)
Time Latitude Longitude Altitude Speed Heading
2026-05-06 00:11 41.25548 -70.06554 52 ft 0 kts 315°
2026-05-06 00:45 41.25548 -70.06553 52 ft 2 kts 315°
2026-05-06 00:45 41.25545 -70.06549 52 ft 0 kts 336°
2026-05-06 00:45 41.25546 -70.06547 52 ft 0 kts 60°
2026-05-06 00:45 41.25542 -70.06509 52 ft 6 kts 96°
2026-05-06 00:46 41.25565 -70.06431 52 ft 10 kts 37°
2026-05-06 00:46 41.25612 -70.06320 52 ft 15 kts 72°
2026-05-06 00:46 41.25720 -70.06177 51 ft 23 kts 42°
2026-05-06 00:46 41.25802 -70.06055 51 ft 16 kts 43°
2026-05-06 00:47 41.25912 -70.05908 52 ft 27 kts 41°
2026-05-06 00:47 41.25971 -70.05800 52 ft 14 kts 41°
2026-05-06 00:47 41.25973 -70.05716 48 ft 0 kts 128°
2026-05-06 00:49 41.25972 -70.05715 48 ft 1 kts 129°
2026-05-06 00:49 41.25924 -70.05669 47 ft 16 kts 168°
2026-05-06 00:50 41.25831 -70.05743 47 ft 0 kts 228°
2026-05-06 00:50 41.25748 -70.05853 49 ft 42 kts 226°
2026-05-06 00:50 41.25457 -70.06280 94 ft 77 kts 227°
2026-05-06 00:51 41.25123 -70.06874 228 ft 82 kts 234°
2026-05-06 00:51 41.24761 -70.07434 354 ft 74 kts 213°
2026-05-06 00:51 41.24320 -70.07868 560 ft 85 kts 230°
2026-05-06 00:51 41.23957 -70.08570 617 ft 100 kts 230°
2026-05-06 00:52 41.23523 -70.09347 689 ft 106 kts 230°
2026-05-06 00:52 41.23066 -70.10156 618 ft 118 kts 226°
2026-05-06 00:52 41.22533 -70.11030 612 ft 116 kts 228°
2026-05-06 00:52 41.22212 -70.11558 820 ft 102 kts 226°
2026-05-06 00:53 41.21840 -70.12242 1157 ft 81 kts 229°
2026-05-06 00:53 41.21518 -70.12779 1511 ft 68 kts 226°
2026-05-06 00:53 41.21255 -70.13246 1869 ft 58 kts 228°
2026-05-06 00:53 41.21025 -70.13637 2216 ft 50 kts 228°
2026-05-06 00:54 41.20820 -70.13988 2561 ft 46 kts 229°
2026-05-06 00:54 41.20617 -70.14308 2838 ft 47 kts 228°
2026-05-06 00:54 41.20369 -70.14682 3061 ft 60 kts 228°
2026-05-06 00:54 41.20067 -70.15130 3277 ft 71 kts 228°
2026-05-06 00:55 41.19724 -70.15646 3512 ft 78 kts 229°
2026-05-06 00:55 41.19349 -70.16195 3751 ft 83 kts 229°
2026-05-06 00:55 41.18944 -70.16771 3985 ft 88 kts 229°
2026-05-06 00:55 41.18523 -70.17377 4214 ft 91 kts 237°
2026-05-06 00:56 41.18600 -70.18237 4451 ft 117 kts 292°
2026-05-06 00:56 41.19464 -70.18713 4674 ft 155 kts 339°
2026-05-06 00:56 41.20549 -70.18781 4908 ft 156 kts 340°
2026-05-06 00:56 41.21632 -70.18877 5133 ft 156 kts 340°
2026-05-06 00:57 41.22715 -70.18971 5346 ft 155 kts 340°
2026-05-06 00:57 41.23786 -70.19062 5578 ft 155 kts 340°
2026-05-06 00:57 41.24861 -70.19155 5806 ft 154 kts 340°
2026-05-06 00:57 41.25918 -70.19242 6031 ft 154 kts 340°
2026-05-06 00:58 41.26992 -70.19331 6257 ft 154 kts 340°
2026-05-06 00:58 41.28063 -70.19421 6476 ft 154 kts 340°
2026-05-06 00:58 41.29134 -70.19514 6696 ft 154 kts 340°
2026-05-06 00:58 41.30203 -70.19606 6910 ft 154 kts 340°
2026-05-06 00:59 41.31271 -70.19697 7132 ft 153 kts 340°
2026-05-06 00:59 41.32337 -70.19790 7346 ft 153 kts 340°
2026-05-06 00:59 41.33402 -70.19883 7564 ft 153 kts 340°
2026-05-06 00:59 41.34455 -70.19974 7786 ft 153 kts 340°
2026-05-06 01:00 41.35522 -70.20070 7994 ft 155 kts 340°
2026-05-06 01:00 41.36639 -70.20189 8011 ft 167 kts 341°
2026-05-06 01:00 41.37818 -70.20335 8018 ft 174 kts 341°
2026-05-06 01:00 41.39030 -70.20535 8044 ft 174 kts 334°
2026-05-06 01:01 41.40191 -70.20961 8042 ft 173 kts 329°
2026-05-06 01:01 41.41351 -70.21420 8039 ft 175 kts 330°
2026-05-06 01:01 41.42519 -70.21886 8036 ft 175 kts 330°
2026-05-06 01:01 41.43672 -70.22353 8032 ft 175 kts 329°
2026-05-06 01:02 41.44842 -70.22829 8009 ft 176 kts 329°
2026-05-06 01:02 41.46014 -70.23306 8009 ft 176 kts 329°
2026-05-06 01:02 41.47190 -70.23785 8011 ft 176 kts 329°
2026-05-06 01:02 41.48355 -70.24254 8002 ft 175 kts 329°
2026-05-06 01:03 41.49518 -70.24720 8004 ft 174 kts 330°
2026-05-06 01:03 41.50681 -70.25186 8002 ft 174 kts 330°
2026-05-06 01:03 41.51839 -70.25648 8001 ft 173 kts 330°
2026-05-06 01:03 41.52995 -70.26110 8002 ft 173 kts 329°
2026-05-06 01:04 41.54135 -70.26566 8002 ft 173 kts 329°
2026-05-06 01:04 41.55290 -70.27029 8006 ft 173 kts 329°
2026-05-06 01:04 41.56447 -70.27493 8003 ft 173 kts 330°
2026-05-06 01:04 41.57601 -70.27960 8003 ft 173 kts 329°
2026-05-06 01:05 41.58751 -70.28425 8004 ft 173 kts 330°
2026-05-06 01:05 41.59903 -70.28893 8004 ft 173 kts 330°
2026-05-06 01:05 41.61054 -70.29363 8006 ft 173 kts 330°
2026-05-06 01:05 41.62199 -70.29831 8006 ft 172 kts 329°
2026-05-06 01:06 41.63348 -70.30301 8004 ft 172 kts 329°
2026-05-06 01:06 41.64494 -70.30770 8004 ft 173 kts 329°
2026-05-06 01:06 41.65645 -70.31241 8008 ft 172 kts 329°
2026-05-06 01:06 41.66793 -70.31713 8007 ft 173 kts 329°
2026-05-06 01:07 41.67928 -70.32179 8007 ft 173 kts 330°
2026-05-06 01:07 41.69076 -70.32656 8007 ft 173 kts 329°
2026-05-06 01:07 41.70222 -70.33133 8010 ft 172 kts 330°
2026-05-06 01:07 41.71366 -70.33607 8007 ft 172 kts 330°
2026-05-06 01:08 41.72509 -70.34082 8006 ft 172 kts 329°
2026-05-06 01:08 41.73652 -70.34560 8006 ft 172 kts 330°
2026-05-06 01:08 41.74794 -70.35039 8007 ft 172 kts 329°
2026-05-06 01:08 41.75938 -70.35518 8003 ft 173 kts 330°
2026-05-06 01:09 41.77086 -70.36000 8003 ft 173 kts 330°
2026-05-06 01:09 41.78071 -70.36753 8001 ft 157 kts 307°
2026-05-06 01:09 41.78882 -70.37726 8002 ft 157 kts 306°
2026-05-06 01:09 41.79697 -70.38707 8001 ft 157 kts 306°
2026-05-06 01:10 41.80510 -70.39689 7999 ft 157 kts 306°
2026-05-06 01:10 41.81324 -70.40673 7999 ft 157 kts 306°
2026-05-06 01:10 41.82137 -70.41658 8016 ft 157 kts 306°
2026-05-06 01:10 41.82937 -70.42628 8015 ft 157 kts 306°
2026-05-06 01:11 41.83746 -70.43610 8011 ft 157 kts 306°
2026-05-06 01:11 41.84553 -70.44595 8012 ft 157 kts 306°
2026-05-06 01:11 41.85362 -70.45586 8011 ft 157 kts 306°
2026-05-06 01:11 41.86169 -70.46577 7990 ft 157 kts 306°
2026-05-06 01:12 41.86974 -70.47570 7988 ft 157 kts 306°
2026-05-06 01:12 41.87781 -70.48565 7989 ft 157 kts 306°
2026-05-06 01:12 41.88585 -70.49564 7989 ft 157 kts 306°
2026-05-06 01:12 41.89387 -70.50568 7989 ft 157 kts 306°
2026-05-06 01:13 41.90189 -70.51572 7988 ft 158 kts 306°
2026-05-06 01:13 41.90990 -70.52577 7993 ft 157 kts 306°
2026-05-06 01:13 41.91779 -70.53567 7992 ft 158 kts 306°
2026-05-06 01:13 41.92582 -70.54573 7992 ft 157 kts 306°
2026-05-06 01:14 41.94178 -70.56580 7995 ft 157 kts 306°
2026-05-06 01:14 41.94977 -70.57584 7995 ft 157 kts 306°
2026-05-06 01:14 41.95779 -70.58591 7992 ft 157 kts 306°
2026-05-06 01:15 41.96577 -70.59595 7994 ft 157 kts 306°
2026-05-06 01:15 41.97374 -70.60604 7993 ft 157 kts 306°
2026-05-06 01:15 41.98170 -70.61615 7994 ft 157 kts 306°
2026-05-06 01:15 41.98964 -70.62623 7996 ft 157 kts 306°
2026-05-06 01:16 41.99757 -70.63634 7950 ft 157 kts 306°
2026-05-06 01:16 42.00552 -70.64645 7951 ft 158 kts 306°
2026-05-06 01:16 42.01352 -70.65664 7951 ft 158 kts 306°
2026-05-06 01:16 42.02308 -70.66469 7938 ft 174 kts 333°
2026-05-06 01:17 42.03503 -70.66809 7948 ft 176 kts 338°
2026-05-06 01:17 42.04739 -70.66962 7938 ft 188 kts
2026-05-06 01:17 42.05930 -70.66121 7936 ft 200 kts 35°
2026-05-06 01:17 42.06980 -70.64927 7941 ft 199 kts 31°
2026-05-06 01:18 42.08129 -70.63901 7935 ft 198 kts 27°
2026-05-06 01:18 42.09285 -70.62908 7941 ft 197 kts 26°
2026-05-06 01:18 42.10446 -70.61907 7950 ft 197 kts 26°
2026-05-06 01:18 42.11595 -70.60913 7772 ft 191 kts 27°
2026-05-06 01:19 42.12677 -70.59961 7562 ft 182 kts 26°
2026-05-06 01:19 42.13722 -70.59035 7353 ft 178 kts 26°
2026-05-06 01:19 42.14783 -70.58226 7149 ft 172 kts 17°
2026-05-06 01:19 42.15859 -70.57578 6952 ft 171 kts 14°
2026-05-06 01:20 42.16943 -70.56930 6756 ft 170 kts 14°
2026-05-06 01:20 42.18040 -70.56409 6561 ft 165 kts
2026-05-06 01:20 42.19154 -70.56009 6369 ft 165 kts
2026-05-06 01:20 42.20262 -70.55603 6177 ft 165 kts
2026-05-06 01:21 42.21375 -70.55196 5979 ft 165 kts
2026-05-06 01:21 42.22483 -70.54793 5773 ft 164 kts
2026-05-06 01:21 42.23572 -70.54393 5575 ft 164 kts
2026-05-06 01:21 42.24679 -70.53986 5363 ft 165 kts
2026-05-06 01:22 42.25785 -70.53575 5182 ft 165 kts
2026-05-06 01:22 42.26892 -70.53196 4983 ft 162 kts 357°
2026-05-06 01:22 42.27971 -70.52985 4937 ft 152 kts 354°
2026-05-06 01:22 42.28996 -70.52783 4926 ft 144 kts 349°
2026-05-06 01:23 42.29941 -70.52847 4927 ft 132 kts 337°
2026-05-06 01:23 42.30809 -70.53047 4922 ft 113 kts 313°
2026-05-06 01:23 42.31180 -70.53764 4925 ft 91 kts 281°
2026-05-06 01:23 42.31623 -70.54458 4924 ft 99 kts 295°
2026-05-06 01:24 42.32089 -70.55131 4923 ft 100 kts 296°
2026-05-06 01:24 42.32580 -70.55804 4924 ft 100 kts 297°
2026-05-06 01:24 42.33077 -70.56470 4925 ft 101 kts 297°
2026-05-06 01:24 42.33580 -70.57133 4925 ft 101 kts 297°
2026-05-06 01:25 42.34084 -70.57793 4923 ft 100 kts 297°
2026-05-06 01:25 42.34585 -70.58448 4922 ft 100 kts 297°
2026-05-06 01:25 42.35097 -70.59130 4933 ft 110 kts 298°
2026-05-06 01:25 42.35684 -70.59907 4937 ft 127 kts 301°
2026-05-06 01:26 42.36351 -70.60772 4932 ft 141 kts 302°
2026-05-06 01:26 42.37094 -70.61728 4928 ft 149 kts 303°
2026-05-06 01:26 42.37847 -70.62701 4927 ft 153 kts 303°
2026-05-06 01:26 42.38622 -70.63704 4915 ft 155 kts 303°
2026-05-06 01:27 42.39403 -70.64721 4914 ft 156 kts 303°
2026-05-06 01:27 42.40187 -70.65743 4913 ft 157 kts 303°
2026-05-06 01:27 42.40972 -70.66768 4909 ft 157 kts 303°
2026-05-06 01:27 42.41756 -70.67792 4906 ft 157 kts 304°
2026-05-06 01:28 42.42541 -70.68816 4907 ft 156 kts 303°
2026-05-06 01:28 42.43312 -70.69812 4807 ft 143 kts 304°
2026-05-06 01:28 42.43976 -70.70646 4630 ft 119 kts 300°
2026-05-06 01:28 42.44529 -70.71373 4444 ft 104 kts 298°
2026-05-06 01:29 42.45027 -70.72033 4259 ft 97 kts 296°
2026-05-06 01:29 42.45490 -70.72646 4091 ft 92 kts 295°
2026-05-06 01:29 42.45941 -70.73243 3924 ft 89 kts 294°
2026-05-06 01:29 42.46384 -70.73829 3733 ft 90 kts 294°
2026-05-06 01:30 42.46845 -70.74441 3487 ft 95 kts 296°
2026-05-06 01:30 42.47324 -70.75067 3250 ft 96 kts 297°
2026-05-06 01:30 42.47803 -70.75693 3018 ft 97 kts 296°
2026-05-06 01:30 42.48406 -70.76211 2766 ft 123 kts 330°
2026-05-06 01:31 42.49349 -70.75933 2524 ft 150 kts
2026-05-06 01:31 42.50362 -70.75452 2299 ft 158 kts
2026-05-06 01:31 42.51385 -70.75273 2057 ft 134 kts 323°
2026-05-06 01:31 42.51915 -70.75912 1908 ft 79 kts 262°
2026-05-06 01:32 42.51897 -70.76560 1905 ft 69 kts 263°
2026-05-06 01:32 42.52387 -70.77030 1886 ft 120 kts 333°
2026-05-06 01:32 42.53276 -70.76671 1888 ft 137 kts
2026-05-06 01:32 42.54124 -70.76567 1896 ft 120 kts 336°
2026-05-06 01:33 42.54897 -70.76659 1895 ft 101 kts 311°
2026-05-06 01:33 42.55516 -70.76990 1893 ft 85 kts 294°
2026-05-06 01:33 42.55699 -70.77481 1905 ft 53 kts 258°
2026-05-06 01:33 42.55795 -70.77979 1907 ft 55 kts 260°
2026-05-06 01:34 42.55892 -70.78483 1915 ft 55 kts 260°
2026-05-06 01:34 42.55988 -70.78994 1914 ft 56 kts 260°
2026-05-06 01:34 42.55908 -70.79429 1909 ft 49 kts 245°
2026-05-06 01:34 42.55803 -70.79869 1914 ft 49 kts 243°
2026-05-06 01:35 42.55696 -70.80310 1912 ft 49 kts 243°
2026-05-06 01:35 42.55592 -70.80749 1917 ft 51 kts 243°
2026-05-06 01:35 42.55445 -70.81342 1929 ft 83 kts 245°
2026-05-06 01:35 42.55255 -70.82195 1930 ft 104 kts 246°
2026-05-06 01:36 42.55037 -70.83198 1922 ft 116 kts 247°
2026-05-06 01:36 42.54808 -70.84273 1916 ft 120 kts 247°
2026-05-06 01:36 42.54590 -70.85372 1911 ft 123 kts 254°
2026-05-06 01:36 42.54735 -70.86555 1913 ft 129 kts 265°
2026-05-06 01:37 42.54784 -70.87746 1916 ft 125 kts 261°
2026-05-06 01:37 42.54690 -70.88879 1910 ft 118 kts 238°
2026-05-06 01:37 42.54163 -70.89727 1912 ft 119 kts 234°
2026-05-06 01:37 42.53743 -70.90699 1909 ft 121 kts 239°
2026-05-06 01:38 42.53342 -70.91704 1915 ft 122 kts 240°
2026-05-06 01:38 42.52812 -70.92586 1911 ft 125 kts 218°
2026-05-06 01:38 42.52269 -70.92884 1914 ft 129 kts 207°
2026-05-06 01:38 42.51418 -70.93266 1911 ft 129 kts 209°
2026-05-06 01:39 42.50575 -70.93674 1904 ft 127 kts 209°
2026-05-06 01:39 42.49746 -70.94077 1910 ft 127 kts 207°
2026-05-06 01:39 42.48913 -70.94481 1907 ft 128 kts 207°
2026-05-06 01:39 42.48076 -70.94891 1901 ft 125 kts 207°
2026-05-06 01:40 42.47284 -70.95269 1896 ft 118 kts 207°
2026-05-06 01:40 42.46513 -70.95643 1821 ft 112 kts 208°
2026-05-06 01:40 42.45837 -70.95967 1711 ft 96 kts 211°
2026-05-06 01:40 42.45246 -70.96254 1589 ft 84 kts 211°
2026-05-06 01:41 42.44777 -70.96479 1507 ft 59 kts 212°
2026-05-06 01:41 42.44446 -70.96611 1495 ft 41 kts 211°
2026-05-06 01:41 42.44215 -70.96725 1403 ft 34 kts 213°
2026-05-06 01:41 42.43984 -70.96842 1270 ft 37 kts 213°
2026-05-06 01:42 42.43787 -70.96939 1322 ft 26 kts 219°
2026-05-06 01:42 42.43588 -70.96999 1210 ft 29 kts 210°
2026-05-06 01:42 42.43394 -70.97050 1104 ft 31 kts 206°
2026-05-06 01:42 42.43175 -70.97178 949 ft 40 kts 213°
2026-05-06 01:43 42.42905 -70.97377 934 ft 43 kts 207°
2026-05-06 01:43 42.42605 -70.97536 893 ft 53 kts 202°
2026-05-06 01:43 42.42245 -70.97679 927 ft 53 kts 200°
2026-05-06 01:43 42.41865 -70.97834 903 ft 59 kts 206°
2026-05-06 01:44 42.41493 -70.98047 920 ft 57 kts 204°
2026-05-06 01:44 42.41097 -70.98253 830 ft 65 kts 203°
2026-05-06 01:44 42.40685 -70.98497 819 ft 63 kts 202°
2026-05-06 01:44 42.40263 -70.98671 744 ft 64 kts 194°
2026-05-06 01:45 42.39842 -70.98874 610 ft 65 kts 201°
2026-05-06 01:45 42.39427 -70.99068 556 ft 64 kts 199°
2026-05-06 01:45 42.39024 -70.99289 455 ft 62 kts 199°
2026-05-06 01:45 42.38615 -70.99467 344 ft 62 kts 196°
2026-05-06 01:46 42.38216 -70.99665 234 ft 57 kts 198°
2026-05-06 01:46 42.37847 -70.99848 149 ft 57 kts 194°
2026-05-06 01:46 42.37485 -71.00020 89 ft 48 kts 196°
2026-05-06 01:46 42.37225 -71.00161 28 ft 28 kts 195°
2026-05-06 01:47 42.37078 -71.00218 16 ft 21 kts 198°
2026-05-06 01:47 42.36872 -71.00319 12 ft 44 kts 200°
2026-05-06 01:47 42.36588 -71.00460 15 ft 33 kts 201°
2026-05-06 01:47 42.36437 -71.00540 17 ft 18 kts 206°
2026-05-06 01:48 42.36408 -71.00702 17 ft 24 kts 295°
2026-05-06 01:48 42.36457 -71.00859 19 ft 13 kts 288°
2026-05-06 01:48 42.36459 -71.00866 19 ft 0 kts 290°
2026-05-06 01:49 42.36461 -71.00875 19 ft 6 kts 293°
2026-05-06 01:49 42.36494 -71.00971 19 ft 5 kts 291°
2026-05-06 01:49 42.36494 -71.00972 19 ft 0 kts 292°
2026-05-06 01:49 42.36514 -71.01036 18 ft 16 kts 288°
2026-05-06 01:50 42.36566 -71.01205 14 ft 20 kts 288°
2026-05-06 01:50 42.36552 -71.01315 14 ft 17 kts 208°
2026-05-06 01:50 42.36454 -71.01396 15 ft 18 kts 220°
2026-05-06 01:50 42.36463 -71.01549 16 ft 14 kts 326°
2026-05-06 01:51 42.36501 -71.01565 16 ft 0 kts 352°
2026-05-06 01:51 42.36512 -71.01564 16 ft 7 kts 16°
2026-05-06 01:51 42.36536 -71.01528 17 ft 7 kts 71°
2026-05-06 01:51 42.36548 -71.01517 16 ft 0 kts 311°